History Range:
146.850
Actions Date Temp RH
2019-06-26 17:01:14 86.9000 2.2000
2019-06-26 16:35:09 87.4000 2.2000
2019-06-26 16:03:16 88.2000 2.0000
2019-06-26 15:30:00 90.0000 2.0000
2019-06-26 15:00:02 90.5000 5.6000
2019-06-26 14:30:02 90.3000 5.8000
2019-06-26 14:04:25 90.3000 4.0000
2019-06-26 13:32:03 90.0000 6.5000
2019-06-26 13:01:59 89.8000 7.3000
2019-06-26 12:40:01 89.4000 7.5000
2019-06-26 12:00:00 88.9000 8.4000
2019-06-26 11:30:02 88.5000 9.5000
2019-06-26 11:00:00 87.6000 11.3000
2019-06-26 10:30:52 87.1000 11.1000
2019-06-26 10:00:02 86.7000 12.0000
2019-06-26 09:30:00 86.2000 11.7000
2019-06-26 09:00:20 86.0000 10.7000
2019-06-26 08:30:08 85.8000 10.8000
2019-06-26 08:00:02 85.3000 9.9000
2019-06-26 07:30:00 85.1000 8.9000